H1 CPF 2 NER 2025 9 4 9 247 01 glonass127 H2 1106403 9127 37869 2025 9 4 0 0 0 2025 9 7 23 45 0 900 1 1 0 0 0 1 H9 10 0 60922 0.00000 0 -1864750.218 25011181.486 -4719443.278 10 0 60922 900.00000 0 -1741891.782 25422693.548 -1527414.591 10 0 60922 1800.00000 0 -1565168.099 25430506.132 1694228.802 10 0 60922 2700.00000 0 -1390543.332 25031495.298 4883070.734 10 0 60922 3600.00000 0 -1273470.937 24235969.323 7977425.311 10 0 60922 4500.00000 0 -1266320.347 23067253.364 10917517.181 10 0 60922 5400.00000 0 -1415941.714 21560753.486 13646618.618 10 0 60922 6300.00000 0 -1761469.985 19762540.637 16112123.047 10 0 60922 7200.00000 0 -2332459.056 17727514.389 18266536.174 10 0 60922 8100.00000 0 -3147422.755 15517222.826 20068367.882 10 0 60922 9000.00000 0 -4212842.571 13197428.256 21482909.977 10 0 60922 9900.00000 0 -5522682.888 10835518.192 22482886.994 10 0 60922 10800.00000 0 -7058434.044 8497866.734 23048969.424 10 0 60922 11700.00000 0 -8789682.306 6247253.097 23170140.880 10 0 60922 12600.00000 0 -10675184.733 4140441.646 22843912.907 10 0 60922 13500.00000 0 -12664406.689 2226021.250 22076383.334 10 0 60922 14400.00000 0 -14699461.045 542591.565 20882136.350 10 0 60922 15300.00000 0 -16717371.655 -882629.777 19283984.793 10 0 60922 16200.00000 0 -18652570.092 -2034721.726 17312557.580 10 0 60922 17100.00000 0 -20439524.489 -2911457.805 15005737.783 10 0 60922 18000.00000 0 -22015392.917 -3523170.000 12407959.479 10 0 60922 18900.00000 0 -23322591.756 -3892082.780 9569374.325 10 0 60922 19800.00000 0 -24311171.773 -4051143.491 6544901.523 10 0 60922 20700.00000 0 -24940901.467 -4042396.604 3393177.677 10 0 60922 21600.00000 0 -25182968.460 -3914968.931 175425.604 10 0 60922 22500.00000 0 -25021224.838 -3722750.116 -3045736.479 10 0 60922 23400.00000 0 -24452921.072 -3521866.432 -6207521.957 10 0 60922 24300.00000 0 -23488894.479 -3368055.697 -9248214.144 10 0 60922 25200.00000 0 -22153201.423 -3314056.243 -12108390.189 10 0 60922 26100.00000 0 -20482206.418 -3407123.010 -14732104.588 10 0 60922 27000.00000 0 -18523164.913 -3686778.984 -17068006.860 10 0 60922 27900.00000 0 -16332358.723 -4182900.443 -19070369.228 10 0 60922 28800.00000 0 -13972862.733 -4914220.165 -20700001.953 10 0 60922 29700.00000 0 -11512037.637 -5887314.713 -21925036.608 10 0 60922 30600.00000 0 -9018855.460 -7096120.788 -22721560.549 10 0 60922 31500.00000 0 -6561171.766 -8522002.526 -23074089.291 10 0 60922 32400.00000 0 -4203060.551 -10134367.568 -22975867.276 10 0 60922 33300.00000 0 -2002324.738 -11891805.849 -22428991.356 10 0 60922 34200.00000 0 -8287.218 -13743702.356 -21444355.316 10 0 60922 35100.00000 0 1740045.216 -15632254.759 -20041417.684 10 0 60922 36000.00000 0 3215369.219 -17494809.526 -18247798.830 10 0 60922 36900.00000 0 4402967.304 -19266416.765 -16098716.947 10 0 60922 37800.00000 0 5301051.125 -20882495.049 -13636275.794 10 0 60922 38700.00000 0 5920554.591 -22281493.367 -10908619.940 10 0 60922 39600.00000 0 6284389.266 -23407437.938 -7968975.849 10 0 60922 40500.00000 0 6426197.219 -24212257.230 -4874599.091 10 0 60922 41400.00000 0 6388657.417 -24657788.517 -1685649.546 10 0 60922 42300.00000 0 6221420.143 -24717383.270 1535982.507 10 0 60922 43200.00000 0 5978758.861 -24377046.080 4727876.079 10 0 60922 44100.00000 0 5717040.069 -23636061.640 7828281.639 10 0 60922 45000.00000 0 5492118.360 -22507085.852 10777302.948 10 0 60922 45900.00000 0 5356766.192 -21015699.291 13518036.750 10 0 60922 46800.00000 0 5358245.568 -19199443.310 15997649.864 10 0 60922 47700.00000 0 5536122.255 -17106379.881 18168374.791 10 0 60922 48600.00000 0 5920412.646 -14793235.299 19988406.840 10 0 60922 49500.00000 0 6530139.363 -12323204.173 21422687.838 10 0 60922 50400.00000 0 7372354.879 -9763503.379 22443563.458 10 0 60922 51300.00000 0 8441673.389 -7182775.215 23031303.456 10 0 60922 52200.00000 0 9720330.692 -4648444.695 23174476.226 10 0 60922 53100.00000 0 11178770.675 -2224137.598 22870171.244 10 0 60922 54000.00000 0 12776735.842 32736.570 22124065.202 10 0 60922 54900.00000 0 14464819.057 2073138.968 20950329.897 10 0 60922 55800.00000 0 16186414.845 3858205.627 19371382.214 10 0 60922 56700.00000 0 17879992.073 5360627.627 17417479.064 10 0 60922 57600.00000 0 19481596.193 6565550.104 15126162.585 10 0 60922 58500.00000 0 20927478.948 7470952.074 12541563.675 10 0 60922 59400.00000 0 22156747.255 8087490.068 9713574.618 10 0 60922 60300.00000 0 23113920.969 8437810.566 6696904.370 10 0 60922 61200.00000 0 23751291.856 8555358.358 3550032.880 10 0 60922 62100.00000 0 24030983.232 8482729.434 334083.385 10 0 60922 63000.00000 0 23926621.323 8269636.718 -2888366.007 10 0 60922 63900.00000 0 23424545.025 7970574.097 -6054508.094 10 0 60922 64800.00000 0 22524499.802 7642277.914 -9102544.914 10 0 60922 65700.00000 0 21239783.240 7341094.543 -11972912.939 10 0 60922 66600.00000 0 19596833.243 7120367.566 -14609469.148 10 0 60922 67500.00000 0 17634273.932 7027957.774 -16960612.507 10 0 60922 68400.00000 0 15401458.015 7104004.004 -18980316.630 10 0 60922 69300.00000 0 12956566.383 7379022.625 -20629051.137 10 0 60922 70200.00000 0 10364345.085 7872428.853 -21874571.875 10 0 60922 71100.00000 0 7693575.643 8591544.760 -22692563.068 10 0 60922 72000.00000 0 5014386.254 9531137.489 -23067117.939 10 0 60922 72900.00000 0 2395518.061 10673508.045 -22991048.070 10 0 60922 73800.00000 0 -98337.633 11989126.950 -22466015.652 10 0 60922 74700.00000 0 -2409018.793 13437789.311 -21502486.756 10 0 60922 75600.00000 0 -4487084.739 14970239.339 -20119507.681 10 0 60922 76500.00000 0 -6293629.714 16530194.303 -18344310.205 10 0 60922 77400.00000 0 -7801643.480 18056680.866 -16211755.184 10 0 60922 78300.00000 0 -8996864.291 19486583.787 -13763627.196 10 0 60922 79200.00000 0 -9878091.556 20757298.315 -11047795.882 10 0 60922 80100.00000 0 -10456948.659 21809373.762 -8117262.149 10 0 60922 81000.00000 0 -10757109.761 22589036.745 -5029109.502 10 0 60922 81900.00000 0 -10813026.928 23050488.369 -1843382.238 10 0 60922 82800.00000 0 -10668214.594 23157879.788 1378086.595 10 0 60922 83700.00000 0 -10373166.519 22886884.713 4572874.164 10 0 60922 84600.00000 0 -9982995.036 22225804.806 7679170.433 10 0 60922 85500.00000 0 -9554893.204 21176163.686 10636961.500 10 0 60923 0.00000 0 -9145526.973 19752766.789 13389171.605 10 0 60923 900.00000 0 -8808466.298 17983225.390 15882744.702 10 0 60923 1800.00000 0 -8591762.426 15906967.675 18069642.970 10 0 60923 2700.00000 0 -8535770.648 13573775.852 19907750.154 10 0 60923 3600.00000 0 -8671308.568 11041911.433 21361660.884 10 0 60923 4500.00000 0 -9018225.129 8375904.516 22403344.482 10 0 60923 5400.00000 0 -9584439.128 5644096.788 23012672.129 10 0 60923 6300.00000 0 -10365486.891 2916037.379 23177798.745 10 0 60923 7200.00000 0 -11344598.345 259836.471 22895392.996 10 0 60923 8100.00000 0 -12493299.478 -2260416.805 22170711.163 10 0 60923 9000.00000 0 -13772518.108 -4587068.014 21017512.771 10 0 60923 9900.00000 0 -15134149.340 -6671044.802 19457818.275 10 0 60923 10800.00000 0 -16523018.382 -8473650.502 17521511.472 10 0 60923 11700.00000 0 -17879161.635 -9967930.133 15245791.872 10 0 60923 12600.00000 0 -19140333.320 -11139551.800 12674484.945 10 0 60923 13500.00000 0 -20244634.700 -11987165.885 9857220.876 10 0 60923 14400.00000 0 -21133156.772 -12522225.576 6848495.268 10 0 60923 15300.00000 0 -21752525.564 -12768274.534 3706628.006 10 0 60923 16200.00000 0 -22057242.028 -12759729.914 492639.130 10 0 60923 17100.00000 0 -22011716.067 -12540210.513 -2730937.103 10 0 60923 18000.00000 0 -21591906.210 -12160479.683 -5901276.693 10 0 60923 18900.00000 0 -20786492.516 -11676089.723 -8956504.172 10 0 60923 19800.00000 0 -19597529.780 -11144828.045 -11836919.017 10 0 60923 20700.00000 0 -18040550.197 -10624074.639 -14486184.187 10 0 60923 21600.00000 0 -16144108.312 -10168184.868 -16852451.325 10 0 60923 22500.00000 0 -13948785.318 -9826011.011 -18889398.268 10 0 60923 23400.00000 0 -11505693.344 -9638670.267 -20557156.342 10 0 60923 24300.00000 0 -8874542.230 -9637656.374 -21823107.411 10 0 60923 25200.00000 0 -6121350.332 -9843377.031 -22662533.659 10 0 60923 26100.00000 0 -3315896.407 -10264180.677 -23059106.426 10 0 60923 27000.00000 0 -529020.677 -10895914.727 -23005204.196 10 0 60923 27900.00000 0 2170110.574 -11722034.088 -22502053.680 10 0 60923 28800.00000 0 4716661.246 -12714254.786 -21559691.928 10 0 60923 29700.00000 0 7052590.762 -13833723.882 -20196751.298 10 0 60923 30600.00000 0 9128825.526 -15032654.577 -18440072.963 10 0 60923 31500.00000 0 10907046.492 -16256355.584 -16324158.168 10 0 60923 32400.00000 0 12361019.878 -17445567.143 -13890469.852 10 0 60923 33300.00000 0 13477417.852 -18539003.427 -11186600.094 10 0 60923 34200.00000 0 14256098.055 -19475992.738 -8265321.492 10 0 60923 35100.00000 0 14709833.907 -20199103.395 -5183542.626 10 0 60923 36000.00000 0 14863510.874 -20656644.549 -2001189.302 10 0 60923 36900.00000 0 14752826.152 -20804937.070 1219965.561 10 0 60923 37800.00000 0 14422549.720 -20610260.090 4417500.126 10 0 60923 38700.00000 0 13924422.486 -20050392.907 7529546.559 10 0 60923 39600.00000 0 13314781.667 -19115689.369 10495975.820 10 0 60923 40500.00000 0 12652014.073 -17809641.522 13259542.401 10 0 60923 41400.00000 0 11993944.166 -16148910.551 15766968.413 10 0 60923 42300.00000 0 11395265.670 -14162824.891 17969947.944 10 0 60923 43200.00000 0 10905122.909 -11892366.910 19826054.577 10 0 60923 44100.00000 0 10564941.339 -9388690.046 21299536.823 10 0 60923 45000.00000 0 10406596.144 -6711226.883 22361988.401 10 0 60923 45900.00000 0 10450993.805 -3925464.772 22992882.353 10 0 60923 46800.00000 0 10707124.751 -1100478.568 23179960.253 10 0 60923 47700.00000 0 11171626.228 1693680.274 22919469.801 10 0 60923 48600.00000 0 11828874.055 4388633.368 22216246.450 10 0 60923 49500.00000 0 12651600.716 6920257.151 21083636.820 10 0 60923 50400.00000 0 13602015.973 9231092.368 19543264.088 10 0 60923 51300.00000 0 14633385.706 11272483.362 17624637.903 10 0 60923 52200.00000 0 15692005.756 13006359.496 15364613.939 10 0 60923 53100.00000 0 16719490.766 14406584.866 12806710.843 10 0 60923 54000.00000 0 17655284.370 15459819.492 10000295.114 10 0 60923 54900.00000 0 18439286.848 16165854.805 6999647.203 10 0 60923 55800.00000 0 19014490.404 16537407.627 3862924.933 10 0 60923 56700.00000 0 19329510.663 16599379.450 651042.957 10 0 60923 57600.00000 0 19340906.224 16387610.410 -2573510.659 10 0 60923 58500.00000 0 19015185.987 15947179.085 -5747897.558 10 0 60923 59400.00000 0 18330416.460 15330319.192 -8810167.238 10 0 60923 60300.00000 0 17277357.651 14594041.252 -11700484.596 10 0 60923 61200.00000 0 15860076.100 13797560.684 -14362320.907 10 0 60923 62100.00000 0 14096005.884 12999642.775 -16743582.674 10 0 60923 63000.00000 0 12015452.325 12255979.042 -18797654.002 10 0 60923 63900.00000 0 9660557.389 11616708.544 -20484329.796 10 0 60923 64800.00000 0 7083769.214 11124191.518 -21770619.681 10 0 60923 65700.00000 0 4345879.835 10811131.788 -22631405.387 10 0 60923 66600.00000 0 1513713.985 10699129.098 -23049937.796 10 0 60923 67500.00000 0 -1342433.126 10797723.606 -23018163.499 10 0 60923 68400.00000 0 -4151500.514 11103973.195 -22536874.667 10 0 60923 69300.00000 0 -6844394.126 11602580.920 -21615679.922 10 0 60923 70200.00000 0 -9356632.348 12266565.955 -20272797.896 10 0 60923 71100.00000 0 -11630793.330 13058447.895 -18534678.945 10 0 60923 72000.00000 0 -13618662.114 13931892.199 -16435464.098 10 0 60923 72900.00000 0 -15282988.932 14833745.010 -14016293.663 10 0 60923 73800.00000 0 -16598787.132 15706369.196 -11324480.831 10 0 60923 74700.00000 0 -17554119.072 16490181.140 -8412568.288 10 0 60923 75600.00000 0 -18150340.397 17126279.827 -5337287.839 10 0 60923 76500.00000 0 -18401796.106 17559056.542 -2158444.745 10 0 60923 77400.00000 0 -18334984.854 17738675.095 1062250.467 10 0 60923 78300.00000 0 -17987230.060 17623318.644 4262379.399 10 0 60923 79200.00000 0 -17404916.579 17181109.688 7380019.054 10 0 60923 80100.00000 0 -16641369.230 16391624.055 10354928.058 10 0 60923 81000.00000 0 -15754463.585 15246937.009 13129693.862 10 0 60923 81900.00000 0 -14804069.661 13752159.244 15650820.261 10 0 60923 82800.00000 0 -13849435.226 11925441.593 17869736.067 10 0 60923 83700.00000 0 -12946617.054 9797448.948 19743707.700 10 0 60923 84600.00000 0 -12146065.823 7410325.241 21236640.440 10 0 60923 85500.00000 0 -11490463.588 4816191.672 22319755.057 10 0 60924 0.00000 0 -11012902.131 2075239.116 22972128.789 10 0 60924 900.00000 0 -10735476.335 -746510.126 23181091.978 10 0 60924 1800.00000 0 -10668350.765 -3579677.719 22942472.861 10 0 60924 2700.00000 0 -10809337.175 -6354147.449 22260687.152 10 0 60924 3600.00000 0 -11144001.755 -9001717.351 21148669.134 10 0 60924 4500.00000 0 -11646298.647 -11458680.271 19627644.723 10 0 60924 5400.00000 0 -12279705.271 -13668228.019 17726748.884 10 0 60924 6300.00000 0 -12998814.360 -15582580.886 15482492.354 10 0 60924 7200.00000 0 -13751318.571 -17164754.656 12938085.342 10 0 60924 8100.00000 0 -14480306.727 -18389891.267 10142628.577 10 0 60924 9000.00000 0 -15126777.069 -19246096.597 7150184.861 10 0 60924 9900.00000 0 -15632262.771 -19734748.609 4018747.111 10 0 60924 10800.00000 0 -15941459.187 -19870260.995 809121.464 10 0 60924 11700.00000 0 -16004741.004 -19679310.204 -2416253.562 10 0 60924 12600.00000 0 -15780461.075 -19199556.605 -5594528.789 10 0 60924 13500.00000 0 -15236931.009 -18477912.460 -8663682.329 10 0 60924 14400.00000 0 -14353996.474 -17568429.278 -11563748.226 10 0 60924 15300.00000 0 -13124137.041 -16529894.084 -14238009.744 10 0 60924 16200.00000 0 -11553040.590 -15423237.274 -16634131.803 10 0 60924 17100.00000 0 -9659624.894 -14308863.355 -18705208.060 10 0 60924 18000.00000 0 -7475502.996 -13244019.623 -20410699.915 10 0 60924 18900.00000 0 -5043913.186 -12280316.315 -21717247.152 10 0 60924 19800.00000 0 -2418157.735 -11461505.283 -22599332.863 10 0 60924 20700.00000 0 340384.058 -10821612.801 -23039788.641 10 0 60924 21600.00000 0 3164584.528 -10383506.584 -23030129.726 10 0 60924 22500.00000 0 5984139.417 -10157957.903 -22570713.689 10 0 60924 23400.00000 0 8728273.791 -10143237.996 -21670720.132 10 0 60924 24300.00000 0 11328467.784 -10325264.579 -20347952.909 10 0 60924 25200.00000 0 13721087.421 -10678290.380 -18628470.105 10 0 60924 26100.00000 0 15849810.283 -11166102.268 -16546050.714 10 0 60924 27000.00000 0 17667745.117 -11743677.667 -14141510.250 10 0 60924 27900.00000 0 19139158.097 -12359225.685 -11461880.541 10 0 60924 28800.00000 0 20240735.593 -12956524.306 -8559471.569 10 0 60924 29700.00000 0 20962333.357 -13477452.977 -5490835.320 10 0 60924 30600.00000 0 21307184.077 -13864612.292 -2315653.262 10 0 60924 31500.00000 0 21291558.078 -14063919.514 904429.825 10 0 60924 32400.00000 0 20943894.914 -14027070.528 4107002.343 10 0 60924 33300.00000 0 20303445.428 -13713765.156 7230089.387 10 0 60924 34200.00000 0 19418483.791 -13093603.374 10213340.299 10 0 60924 35100.00000 0 18344166.263 -12147574.229 12999178.260 10 0 60924 36000.00000 0 17140127.286 -10869076.524 15533891.168 10 0 60924 36900.00000 0 15867913.465 -9264429.879 17768644.602 10 0 60924 37800.00000 0 14588361.893 -7352855.683 19660399.496 10 0 60924 38700.00000 0 13359030.737 -5165928.928 21172719.172 10 0 60924 39600.00000 0 12231787.326 -2746523.245 22276452.376 10 0 60924 40500.00000 0 11250652.084 -147291.561 22950281.169 10 0 60924 41400.00000 0 10449986.140 2571256.733 23181124.636 10 0 60924 42300.00000 0 9853096.416 5343005.155 22964391.580 10 0 60924 43200.00000 0 9471315.302 8098716.053 22304077.536 10 0 60924 44100.00000 0 9303592.993 10768653.471 21212703.707 10 0 60924 45000.00000 0 9336620.064 13285237.378 19711097.741 10 0 60924 45900.00000 0 9545476.451 15585621.913 17828018.655 10 0 60924 46800.00000 0 9894781.610 17614092.612 15599630.770 10 0 60924 47700.00000 0 10340299.907 19324183.976 13068834.165 10 0 60924 48600.00000 0 10830936.148 20680429.379 10284461.901 10 0 60924 49500.00000 0 11311039.341 21659669.506 7300357.047 10 0 60924 50400.00000 0 11722919.090 22251863.064 4174345.347 10 0 60924 51300.00000 0 12009469.052 22460363.781 967122.016 10 0 60924 52200.00000 0 12116786.284 22301649.804 -2258926.494 10 0 60924 53100.00000 0 11996674.333 21804514.704 -5440942.729 10 0 60924 54000.00000 0 11608921.908 21008752.398 -8516835.944 10 0 60924 54900.00000 0 10923257.660 19963390.328 -11426511.746 10 0 60924 55800.00000 0 9920894.916 18724545.060 -14113067.675 10 0 60924 56700.00000 0 8595597.434 17352991.342 -16523929.167 10 0 60924 57600.00000 0 6954217.741 15911548.457 -18611901.354 10 0 60924 58500.00000 0 5016682.418 14462396.042 -20336113.858 10 0 60924 59400.00000 0 2815422.737 13064434.787 -21662838.185 10 0 60924 60300.00000 0 394273.204 11770805.527 -22566160.165 10 0 60924 61200.00000 0 -2193116.204 10626673.294 -23028493.281 10 0 60924 62100.00000 0 -4885287.264 9667371.089 -23040922.354 10 0 60924 63000.00000 0 -7615315.204 8916982.282 -22603370.980 10 0 60924 63900.00000 0 -10313385.609 8387421.161 -21724590.019 10 0 60924 64800.00000 0 -12909497.396 8078049.331 -20421968.420 10 0 60924 65700.00000 0 -15336177.712 7975842.258 -18721171.467 10 0 60924 66600.00000 0 -17531094.484 8056096.468 -16655615.203 10 0 60924 67500.00000 0 -19439457.312 8283644.674 -14265789.111 10 0 60924 68400.00000 0 -21016106.967 8614524.500 -11598442.150 10 0 60924 69300.00000 0 -22227207.453 8998027.433 -8705649.903 10 0 60924 70200.00000 0 -23051472.029 9379038.896 -5643782.703 10 0 60924 71100.00000 0 -23480874.613 9700568.624 -2472396.264 10 0 60924 72000.00000 0 -23520819.910 9906363.158 746932.446 10 0 60924 72900.00000 0 -23189768.504 9943489.669 3951800.832 10 0 60924 73800.00000 0 -22518335.732 9764782.287 7080184.419 10 0 60924 74700.00000 0 -21547904.904 9331048.704 10071625.750 10 0 60924 75600.00000 0 -20328815.021 8612945.449 12868386.350 10 0 60924 76500.00000 0 -18918200.099 7592444.527 15416540.937 10 0 60924 77400.00000 0 -17377570.823 6263831.340 17666994.594 10 0 60924 78300.00000 0 -15770239.003 4634193.218 19576405.456 10 0 60924 79200.00000 0 -14158690.944 2723378.696 21107997.448 10 0 60924 80100.00000 0 -12602017.294 563429.041 22232249.630 10 0 60924 81000.00000 0 -11153504.113 -1802495.305 22927450.908 10 0 60924 81900.00000 0 -9858483.055 -4321650.628 23180110.952 10 0 60924 82800.00000 0 -8752528.006 -6933646.957 22985220.401 10 0 60924 83700.00000 0 -7860071.565 -9572708.941 22346355.552 10 0 60924 84600.00000 0 -7193498.007 -12170170.230 21275625.058 10 0 60924 85500.00000 0 -6752750.350 -14657101.192 19793458.378 10 0 60925 0.00000 0 -6525468.563 -16966963.734 17928238.408 10 0 60925 900.00000 0 -6487654.374 -19038186.520 15715781.917 10 0 60925 1800.00000 0 -6604836.926 -20816551.892 13198677.780 10 0 60925 2700.00000 0 -6833692.060 -22257299.774 10425489.776 10 0 60925 3600.00000 0 -7124049.526 -23326857.136 7449839.264 10 0 60925 4500.00000 0 -7421205.027 -24004120.670 4329382.536 10 0 60925 5400.00000 0 -7668440.577 -24281236.716 1124701.320 10 0 60925 6300.00000 0 -7809646.807 -24163843.308 -2101872.799 10 0 60925 7200.00000 0 -7791935.422 -23670761.664 -5287477.121 10 0 60925 8100.00000 0 -7568129.453 -22833147.844 -8369955.261 10 0 60925 9000.00000 0 -7099023.238 -21693138.608 -11289087.759 10 0 60925 9900.00000 0 -6355313.210 -20302047.540 -13987789.893 10 0 60925 10800.00000 0 -5319114.275 -18718187.343 -16413251.060 10 0 60925 11700.00000 0 -3984994.131 -17004410.780 -18517991.187 10 0 60925 12600.00000 0 -2360478.645 -15225475.316 -20260811.194 10 0 60925 13500.00000 0 -466004.368 -13445344.333 -21607616.993 10 0 60925 14400.00000 0 1665681.705 -11724540.656 -22532099.371 10 0 60925 15300.00000 0 3990650.858 -10117665.749 -23016255.367 10 0 60925 16200.00000 0 6455402.651 -8671190.550 -23050740.486 10 0 60925 17100.00000 0 8998888.120 -7421611.754 -22635044.897 10 0 60925 18000.00000 0 11554860.314 -6394051.230 -21777490.734 10 0 60925 18900.00000 0 14054452.396 -5601356.689 -20495051.574 10 0 60925 19800.00000 0 16428874.060 -5043739.761 -18812998.987 10 0 60925 20700.00000 0 18612112.296 -4708964.305 -16764384.713 10 0 60925 21600.00000 0 20543522.888 -4573074.038 -14389370.423 10 0 60925 22500.00000 0 22170204.210 -4601625.490 -11734420.004 10 0 60925 23400.00000 0 23449054.711 -4751370.936 -8851372.034 10 0 60925 24300.00000 0 24348429.462 -4972317.190 -5796412.213 10 0 60925 25200.00000 0 24849328.580 -5210070.706 -2628967.246 10 0 60925 26100.00000 0 24946070.455 -5408367.989 589457.163 10 0 60925 27000.00000 0 24646424.561 -5511683.356 3796470.923 10 0 60925 27900.00000 0 23971201.360 -5467803.579 6930003.445 10 0 60925 28800.00000 0 22953319.204 -5230261.285 9929493.751 10 0 60925 29700.00000 0 21636389.606 -4760525.551 12737044.720 10 0 60925 30600.00000 0 20072881.556 -4029858.939 15298520.575 10 0 60925 31500.00000 0 18321942.285 -3020764.457 17564568.228 10 0 60925 32400.00000 0 16446965.200 -1727963.118 19491544.969 10 0 60925 33300.00000 0 14513005.289 -158862.058 21042336.913 10 0 60925 34200.00000 0 12584147.827 1666506.066 22187054.661 10 0 60925 35100.00000 0 10720937.557 3716070.443 22903594.827 10 0 60925 36000.00000 0 8977972.671 5946813.196 23178058.175 10 0 60925 36900.00000 0 7401761.125 8306321.001 23005017.310 10 0 60925 37800.00000 0 6028926.225 10734735.652 22387629.063 10 0 60925 38700.00000 0 4884834.519 13167025.843 21337588.919 10 0 60925 39600.00000 0 3982702.270 15535489.210 19874927.188 10 0 60925 40500.00000 0 3323217.700 17772383.906 18027648.981 10 0 60925 41400.00000 0 2894695.483 19812582.989 15831222.596 10 0 60925 42300.00000 0 2673758.413 21596143.035 13327923.543 10 0 60925 43200.00000 0 2626519.435 23070680.890 10566044.222 10 0 60925 44100.00000 0 2710216.291 24193459.266 7598981.989 10 0 60925 45000.00000 0 2875231.719 24933092.890 4484221.201 10 0 60925 45900.00000 0 3067415.250 25270801.879 1282227.478 10 0 60925 46800.00000 0 3230609.066 25201157.287 -1944725.175 10 0 60925 47700.00000 0 3309270.748 24732284.742 -5133771.549 10 0 60925 48600.00000 0 3251080.606 23885514.976 -8222692.322 10 0 60925 49500.00000 0 3009420.991 22694493.653 -11151145.559 10 0 60925 50400.00000 0 2545619.744 21203786.327 -13861866.689 10 0 60925 51300.00000 0 1830859.452 19467036.472 -16301811.302 10 0 60925 52200.00000 0 847668.245 17544754.157 -18423216.125 10 0 60925 53100.00000 0 -409074.194 15501829.277 -20184555.159 10 0 60925 54000.00000 0 -1931660.790 13404875.484 -21551370.294 10 0 60925 54900.00000 0 -3699633.670 11319518.274 -22496958.603 10 0 60925 55800.00000 0 -5680411.417 9307743.221 -23002901.762 10 0 60925 56700.00000 0 -7830441.136 7425417.383 -23059426.728 10 0 60925 57600.00000 0 -10096826.775 5720089.164 -22665590.659 10 0 60925 58500.00000 0 -12419364.464 4229159.467 -21829286.970 10 0 60925 59400.00000 0 -14732898.270 2978500.482 -20567073.440 10 0 60925 60300.00000 0 -16969896.163 1981578.778 -18903827.054 10 0 60925 61200.00000 0 -19063136.856 1239117.343 -16872233.977 10 0 60925 62100.00000 0 -20948393.915 739307.901 -14512126.461 10 0 60925 63000.00000 0 -22567004.161 458561.122 -11869681.458 10 0 60925 63900.00000 0 -23868212.861 362759.575 -8996498.501 10 0 60925 64800.00000 0 -24811198.289 408957.058 -5948576.512 10 0 60925 65700.00000 0 -25366692.396 547449.440 -2785210.968 10 0 60925 66600.00000 0 -25518131.790 724127.063 432165.960 10 0 60925 67500.00000 0 -25262293.394 883007.597 3641179.025 10 0 60925 68400.00000 0 -24609390.914 968841.481 6779713.911 10 0 60925 69300.00000 0 -23582630.756 929679.931 9787108.576 10 0 60925 70200.00000 0 -22217248.311 719297.922 12605309.755 10 0 60925 71100.00000 0 -20559066.602 299371.273 15179973.673 10 0 60925 72000.00000 0 -18662638.481 -358682.157 17461491.516 10 0 60925 72900.00000 0 -16589049.907 -1272272.951 19405922.042 10 0 60925 73800.00000 0 -14403474.997 -2446680.969 20975815.658 10 0 60925 74700.00000 0 -12172582.981 -3874605.902 22140916.343 10 0 60925 75600.00000 0 -9961902.605 -5536246.354 22878729.942 10 0 60925 76500.00000 0 -7833250.780 -7399905.003 23174949.486 10 0 60925 77400.00000 0 -5842329.556 -9423096.338 23023730.376 10 0 60925 78300.00000 0 -4036588.587 -11554113.331 22427810.444 10 0 60925 79200.00000 0 -2453439.785 -13733990.944 21398472.146 10 0 60925 80100.00000 0 -1118896.951 -15898788.112 19955346.440 10 0 60925 81000.00000 0 -46696.313 -17982096.568 18126060.301 10 0 60925 81900.00000 0 762065.178 -19917675.052 15945732.346 10 0 60925 82800.00000 0 1318757.854 -21642101.380 13456323.674 10 0 60925 83700.00000 0 1646519.357 -23097333.157 10705853.789 10 0 60925 84600.00000 0 1779054.375 -24233070.501 7747494.225 10 0 60925 85500.00000 0 1758982.764 -25008821.228 4638555.322 99